Time,TemperatureF,DewpointF,PressureIn,WindDirection,WindDirectionDegrees,WindSpeedMPH,WindSpeedGustMPH,Humidity,HourlyPrecipIn,Conditions,Clouds,dailyrainin,SoftwareType,DateUTC
2014-07-28 00:00:00,75.4,40.9,30.21,ESE,113,0.2,0.2,29,0.00,,,0.00,WUHU216HW,2014-07-28 07:00:00,
2014-07-28 00:05:00,74.9,40.4,30.21,ESE,113,0.0,0.4,29,0.00,,,0.00,WUHU216HW,2014-07-28 07:05:00,
2014-07-28 00:10:00,74.5,40.1,30.21,ESE,113,0.0,0.4,29,0.00,,,0.00,WUHU216HW,2014-07-28 07:10:00,
2014-07-28 00:15:00,74.2,40.8,30.21,South,180,0.0,0.9,30,0.00,,,0.00,WUHU216HW,2014-07-28 07:15:00,
2014-07-28 00:20:00,74.0,40.6,30.21,West,270,0.0,0.9,30,0.00,,,0.00,WUHU216HW,2014-07-28 07:20:00,
2014-07-28 00:25:00,73.8,40.5,30.22,SW,225,0.4,0.9,30,0.00,,,0.00,WUHU216HW,2014-07-28 07:25:00,
2014-07-28 00:30:00,73.6,40.3,30.22,ESE,113,0.0,0.4,30,0.00,,,0.00,WUHU216HW,2014-07-28 07:30:00,
2014-07-28 00:35:00,73.4,40.9,30.21,ESE,113,0.0,0.4,31,0.00,,,0.00,WUHU216HW,2014-07-28 07:35:00,
2014-07-28 00:40:00,73.3,40.8,30.21,ESE,113,0.4,1.1,31,0.00,,,0.00,WUHU216HW,2014-07-28 07:40:00,
2014-07-28 00:45:00,73.1,40.6,30.21,West,270,0.7,1.1,31,0.00,,,0.00,WUHU216HW,2014-07-28 07:45:00,
2014-07-28 00:50:00,72.9,40.5,30.21,SW,225,0.0,1.1,31,0.00,,,0.00,WUHU216HW,2014-07-28 07:50:00,
2014-07-28 00:55:00,72.7,40.3,30.22,SW,225,0.0,0.9,31,0.00,,,0.00,WUHU216HW,2014-07-28 07:55:00,
2014-07-28 01:00:00,72.7,40.3,30.22,SW,225,0.7,0.7,31,0.00,,,0.00,WUHU216HW,2014-07-28 08:00:00,
2014-07-28 01:05:00,72.4,40.1,30.22,WSW,248,0.4,0.9,31,0.00,,,0.00,WUHU216HW,2014-07-28 08:05:00,
2014-07-28 01:10:00,72.4,40.1,30.22,WSW,248,1.3,1.6,31,0.00,,,0.00,WUHU216HW,2014-07-28 08:10:00,
2014-07-28 01:15:00,72.5,39.4,30.22,West,270,1.3,2.2,30,0.00,,,0.00,WUHU216HW,2014-07-28 08:15:00,
2014-07-28 01:20:00,73.1,39.9,30.22,WSW,248,1.1,2.2,30,0.00,,,0.00,WUHU216HW,2014-07-28 08:20:00,
2014-07-28 01:25:00,73.1,39.9,30.22,ENE,68,1.1,2.0,30,0.00,,,0.00,WUHU216HW,2014-07-28 08:25:00,
2014-07-28 01:30:00,73.3,39.0,30.22,NW,315,2.0,2.0,29,0.00,,,0.00,WUHU216HW,2014-07-28 08:30:00,
2014-07-28 01:35:00,73.4,39.2,30.22,SW,225,2.0,2.5,29,0.00,,,0.00,WUHU216HW,2014-07-28 08:35:00,
2014-07-28 01:40:00,73.3,39.0,30.21,WSW,248,2.0,2.7,29,0.00,,,0.00,WUHU216HW,2014-07-28 08:40:00,
2014-07-28 01:45:00,73.3,39.0,30.21,WNW,293,0.0,2.7,29,0.00,,,0.00,WUHU216HW,2014-07-28 08:45:00,
2014-07-28 01:50:00,73.1,38.9,30.21,WNW,293,0.0,0.2,29,0.00,,,0.00,WUHU216HW,2014-07-28 08:50:00,
2014-07-28 01:55:00,72.7,38.5,30.21,WNW,293,0.0,0.0,29,0.00,,,0.00,WUHU216HW,2014-07-28 08:55:00,
2014-07-28 02:00:00,72.5,38.4,30.21,West,270,0.0,0.0,29,0.00,,,0.00,WUHU216HW,2014-07-28 09:00:00,
2014-07-28 02:05:00,72.4,38.3,30.22,West,270,0.0,0.0,29,0.00,,,0.00,WUHU216HW,2014-07-28 09:05:00,
2014-07-28 02:10:00,72.2,38.1,30.22,West,270,0.0,0.0,29,0.00,,,0.00,WUHU216HW,2014-07-28 09:10:00,
2014-07-28 02:15:00,72.2,39.2,30.22,WSW,248,0.0,2.2,30,0.00,,,0.00,WUHU216HW,2014-07-28 09:15:00,
2014-07-28 02:20:00,72.0,39.0,30.21,WSW,248,0.2,2.2,30,0.00,,,0.00,WUHU216HW,2014-07-28 09:20:00,
2014-07-28 02:25:00,72.0,39.0,30.22,SSW,203,0.0,1.3,30,0.00,,,0.00,WUHU216HW,2014-07-28 09:25:00,
2014-07-28 02:30:00,72.0,39.0,30.22,ENE,68,0.4,1.3,30,0.00,,,0.00,WUHU216HW,2014-07-28 09:30:00,
2014-07-28 02:35:00,71.8,38.9,30.22,ENE,68,0.7,1.3,30,0.00,,,0.00,WUHU216HW,2014-07-28 09:35:00,
2014-07-28 02:40:00,71.6,38.7,30.22,ENE,68,0.4,0.7,30,0.00,,,0.00,WUHU216HW,2014-07-28 09:40:00,
2014-07-28 02:45:00,71.3,38.3,30.22,WSW,248,0.0,0.7,30,0.00,,,0.00,WUHU216HW,2014-07-28 09:45:00,
2014-07-28 02:50:00,71.1,38.3,30.21,WSW,248,0.0,0.7,30,0.00,,,0.00,WUHU216HW,2014-07-28 09:50:00,
2014-07-28 02:55:00,70.9,38.8,30.21,WSW,248,0.4,0.7,31,0.00,,,0.00,WUHU216HW,2014-07-28 09:55:00,
2014-07-28 03:00:00,70.7,38.6,30.21,West,270,0.0,1.1,31,0.00,,,0.00,WUHU216HW,2014-07-28 10:00:00,
2014-07-28 03:05:00,70.6,38.4,30.21,WSW,248,0.9,1.1,31,0.00,,,0.00,WUHU216HW,2014-07-28 10:05:00,
2014-07-28 03:10:00,70.6,38.4,30.21,WSW,248,0.0,1.1,31,0.00,,,0.00,WUHU216HW,2014-07-28 10:10:00,
2014-07-28 03:15:00,70.4,39.1,30.22,WSW,248,0.0,0.0,32,0.00,,,0.00,WUHU216HW,2014-07-28 10:15:00,
2014-07-28 03:20:00,70.0,38.7,30.22,WSW,248,0.7,1.1,32,0.00,,,0.00,WUHU216HW,2014-07-28 10:20:00,
2014-07-28 03:25:00,69.8,38.5,30.21,WSW,248,0.0,1.1,32,0.00,,,0.00,WUHU216HW,2014-07-28 10:25:00,
2014-07-28 03:30:00,69.5,38.3,30.21,WSW,248,0.0,0.2,32,0.00,,,0.00,WUHU216HW,2014-07-28 10:30:00,
2014-07-28 03:35:00,69.5,38.3,30.21,WSW,248,0.4,0.4,32,0.00,,,0.00,WUHU216HW,2014-07-28 10:35:00,
2014-07-28 03:40:00,69.3,38.1,30.22,WSW,248,0.0,0.4,32,0.00,,,0.00,WUHU216HW,2014-07-28 10:40:00,